(173956) = 2000 SX50 = 2001 XA14

Discovered at Socorro on 2001-12-09 by LINEAR.

Orbit

Orbit type: Main Belt

Note: WebGL enabled browser required.

epoch2024-03-31.0
epoch JD2460400.5
perihelion date2022-12-26.88469
perihelion JD2459940.38469
argument of perihelion (°)16.44665
ascending node (°)340.17682
inclination (°)8.27721
eccentricity0.0930395
perihelion distance (AU)2.8501659
Tisserand w.r.t. Jupiter3.2
ΔV w.r.t. Earth (km/sec)10.8
semimajor axis (AU)3.1425469
mean anomaly (°)81.40440
mean daily motion (°/day)0.17692170
aphelion distance (AU)3.435
period (years)5.57
P-vector [x]0.99726389
P-vector [y]-0.07279593
P-vector [z]0.01286397
Q-vector [x]0.05550947
Q-vector [y]0.85234432
Q-vector [z]0.52002679
absolute magnitude15.23
phase slope0.15
uncertainty0
referenceMPEC 2024-E179
observations used551
oppositions18
arc length (days)9922
first opposition used1997
last opposition used2024
residual rms (arc-secs)0.71
perturbers coarse indicatorM-v
perturbers precise indicator003Ek
first observation date used1997-01-10.0
last observation date used2024-03-11.0
computer nameMPCLINUX
JD of orbit computation2456819.611358
perihelion JD uncertainty (days)1.8625E-04
argument of perihelion uncertainty (°)4.5474E-05
ascending node uncertainty (°)3.1782E-05
inclination uncertainty (°)7.8336E-06
eccentricity uncertainty 9.0919E-08
perihelion distance uncertainty (AU)2.9498E-07
Minimum Orbit Intersection Distances (in AU)
for orbit epoch: 2460200.5, reference: E2024-CA7
Mercury2.47831
Venus2.1304
Earth1.84853
Mars1.4675
Jupiter1.97532
Saturn5.84178
Uranus15.0147
Neptune26.9483

Observations

572 total observations over interval: 1997 01 10.29557 – 2024 03 11.144143
These data are available for download (format description).

Date (UT) J2000 RA J2000 Dec Magn Location Ref
1997 01 10.29557 09 26 32.47 +21 23 02.5 18.5 V 691 – Steward Observatory, Kitt Peak-Spacewatch MPS 49705
1997 01 10.31913 09 26 31.27 +21 23 02.4 20.4 V 691 – Steward Observatory, Kitt Peak-Spacewatch MPS 49705
1997 01 10.34165 09 26 30.37 +21 23 05.5 20.4 V 691 – Steward Observatory, Kitt Peak-Spacewatch MPS 49705
1997 02 01.19976 09 09 01.65 +22 13 54.5 20.6 V 691 – Steward Observatory, Kitt Peak-Spacewatch MPS 79990
1997 02 01.22263 09 09 00.42 +22 13 57.4 20.5 V 691 – Steward Observatory, Kitt Peak-Spacewatch MPS 79990
1997 02 01.24519 09 08 59.20 +22 13 59.9 20.4 V 691 – Steward Observatory, Kitt Peak-Spacewatch MPS 79990
2000 09 23.25978 23 55 15.25 +04 07 17.7 19.2   704 – Lincoln Laboratory ETS, New Mexico MPS 19826
2000 09 23.27484 23 55 14.47 +04 07 16.2 19.4   704 – Lincoln Laboratory ETS, New Mexico MPS 19826
2000 09 23.28956 23 55 13.80 +04 07 13.5 19.3   704 – Lincoln Laboratory ETS, New Mexico MPS 19826
2000 09 23.30430 23 55 13.01 +04 07 10.2 19.2   704 – Lincoln Laboratory ETS, New Mexico MPS 19826
2000 09 23.31901 23 55 12.27 +04 07 08.8 19.3   704 – Lincoln Laboratory ETS, New Mexico MPS 19826
2000 09 26.25983 23 52 48.78 +03 59 29.8 19.2   704 – Lincoln Laboratory ETS, New Mexico MPS 19826
2000 09 26.27492 23 52 48.03 +03 59 26.8 19.3   704 – Lincoln Laboratory ETS, New Mexico MPS 19826
2000 09 26.29107 23 52 47.17 +03 59 24.9 19.0   704 – Lincoln Laboratory ETS, New Mexico MPS 19826
2000 09 26.30696 23 52 46.36 +03 59 22.3 19.0   704 – Lincoln Laboratory ETS, New Mexico MPS 19826
2000 09 26.32186 23 52 45.62 +03 59 19.7 19.1   704 – Lincoln Laboratory ETS, New Mexico MPS 19826
2001 12 09.31238 06 12 38.28 +34 49 03.7 18.9   704 – Lincoln Laboratory ETS, New Mexico MPS 45076
2001 12 09.32728 06 12 37.37 +34 49 05.2 19.9   704 – Lincoln Laboratory ETS, New Mexico MPS 45076
2001 12 09.34219 06 12 36.62 +34 49 06.5 19.9   704 – Lincoln Laboratory ETS, New Mexico MPS 45076
2001 12 09.35710 06 12 35.74 +34 49 06.4 19.8   704 – Lincoln Laboratory ETS, New Mexico MPS 45076
2001 12 09.37201 06 12 34.93 +34 49 07.1 20.0   704 – Lincoln Laboratory ETS, New Mexico MPS 45076
2001 12 11.28673 06 10 46.98 +34 50 13.6 19.7   704 – Lincoln Laboratory ETS, New Mexico MPS 45076
2001 12 11.30220 06 10 46.06 +34 50 14.6 20.3   704 – Lincoln Laboratory ETS, New Mexico MPS 45076
2001 12 11.31794 06 10 45.13 +34 50 14.6 19.9   704 – Lincoln Laboratory ETS, New Mexico MPS 45076
2001 12 11.33302 06 10 44.24 +34 50 14.5 20.1   704 – Lincoln Laboratory ETS, New Mexico MPS 45076
2001 12 11.34809 06 10 43.43 +34 50 15.0 19.8   704 – Lincoln Laboratory ETS, New Mexico MPS 45076
2001 12 17.31476 06 04 53.21 +34 50 55.6 19.6   704 – Lincoln Laboratory ETS, New Mexico MPS 45076
2001 12 17.33145 06 04 52.15 +34 50 55.3 19.9   704 – Lincoln Laboratory ETS, New Mexico MPS 45076
2001 12 17.34670 06 04 51.16 +34 50 54.8 20.4   704 – Lincoln Laboratory ETS, New Mexico MPS 45076
2001 12 17.36208 06 04 50.23 +34 50 54.2 20.0   704 – Lincoln Laboratory ETS, New Mexico MPS 45076
2001 12 19.18820 06 03 00.75 +34 50 11.1 20.2   644 – Palomar Mountain/NEAT MPS 45076
2001 12 19.20858 06 02 59.52 +34 50 10.8 20.0   644 – Palomar Mountain/NEAT MPS 45076
2001 12 19.22971 06 02 58.21 +34 50 10.1 19.5   644 – Palomar Mountain/NEAT MPS 45076
2001 12 22.22705 05 59 57.46 +34 48 07.0 19.4   704 – Lincoln Laboratory ETS, New Mexico MPS 46753
2001 12 22.24209 05 59 56.54 +34 48 06.3 20.0   704 – Lincoln Laboratory ETS, New Mexico MPS 46753
2001 12 22.25713 05 59 55.57 +34 48 05.0 20.1   704 – Lincoln Laboratory ETS, New Mexico MPS 46753
2001 12 22.27217 05 59 54.67 +34 48 05.6 19.6   704 – Lincoln Laboratory ETS, New Mexico MPS 46753
2001 12 22.28724 05 59 53.71 +34 48 03.3 19.5   704 – Lincoln Laboratory ETS, New Mexico MPS 46753
2003 03 11.23031 10 40 54.03 +08 03 15.5 20.6 V 291 – LPL/Spacewatch II MPS 178293
2003 03 11.25367 10 40 52.91 +08 03 19.4 20.6 V 291 – LPL/Spacewatch II MPS 178293
2003 03 11.27703 10 40 51.81 +08 03 22.9 20.8 V 291 – LPL/Spacewatch II MPS 178293
2003 03 24.12915 10 31 46.43 +08 32 56.2 20.3 V 691 – Steward Observatory, Kitt Peak-Spacewatch MPS 178293
2003 03 24.15580 10 31 45.44 +08 32 59.1 20.3 V 691 – Steward Observatory, Kitt Peak-Spacewatch MPS 178293
2003 03 24.18242 10 31 44.37 +08 33 02.3 20.0 V 691 – Steward Observatory, Kitt Peak-Spacewatch MPS 178293
2003 04 05.15168 10 25 23.29 +08 49 32.4 21.2 V 691 – Steward Observatory, Kitt Peak-Spacewatch MPS 178293
2003 04 05.17928 10 25 22.54 +08 49 33.6 20.9 V 691 – Steward Observatory, Kitt Peak-Spacewatch MPS 178293
2003 04 05.20867 10 25 21.78 +08 49 34.7 20.9 V 691 – Steward Observatory, Kitt Peak-Spacewatch MPS 178293
2006 10 12.41560 02 32 17.20 +25 27 24.4 19.5 R 644 – Palomar Mountain/NEAT MPS 182800
2006 10 12.43751 02 32 16.18 +25 27 24.5 19.7 R 644 – Palomar Mountain/NEAT MPS 182800
2006 10 12.45831 02 32 15.23 +25 27 24.1 19.5 R 644 – Palomar Mountain/NEAT MPS 182800
2006 10 22.44484 02 24 10.57 +25 18 40.5 19.3 R 644 – Palomar Mountain/NEAT MPS 183945
2006 10 22.46528 02 24 09.52 +25 18 38.6 19.7 R 644 – Palomar Mountain/NEAT MPS 183945
2006 10 22.48565 02 24 08.42 +25 18 36.2 19.5 R 644 – Palomar Mountain/NEAT MPS 183945
2006 10 27.29038 02 19 55.92 +25 09 10.8 19.5 V 703 – Catalina Sky Survey MPS 185303
2006 10 27.29760 02 19 55.48 +25 09 10.4 19.6 V 703 – Catalina Sky Survey MPS 185303
2006 10 27.30484 02 19 54.98 +25 09 09.9 18.9 V 703 – Catalina Sky Survey MPS 185303
2006 10 27.31204 02 19 54.76 +25 09 08.3 19.1 V 703 – Catalina Sky Survey MPS 185303
2006 11 13.14543 02 05 27.73 +24 15 31.1 19.7 R 644 – Palomar Mountain/NEAT MPS 188449
2006 11 13.16619 02 05 26.75 +24 15 26.4 19.4 R 644 – Palomar Mountain/NEAT MPS 188449
2006 11 13.18829 02 05 25.66 +24 15 21.7 19.5 R 644 – Palomar Mountain/NEAT MPS 188450
2006 11 22.25207 01 58 58.72 +23 39 11.0 19.5 V 703 – Catalina Sky Survey MPS 188450
2006 11 22.26369 01 58 58.15 +23 39 08.3 19.0 V 703 – Catalina Sky Survey MPS 188450
2006 11 22.27535 01 58 57.75 +23 39 05.4 19.7 V 703 – Catalina Sky Survey MPS 188450
2006 11 22.28699 01 58 57.36 +23 39 01.3 19.5 V 703 – Catalina Sky Survey MPS 188450
2007 12 16.46626 08 50 19.21 +25 45 05.8 20.2 V G96 – Mt. Lemmon Survey MPS 231725
2007 12 16.47311 08 50 19.06 +25 45 06.7 20.4 V G96 – Mt. Lemmon Survey MPS 231725
2007 12 16.47998 08 50 18.92 +25 45 07.5 20.1 V G96 – Mt. Lemmon Survey MPS 231725
2008 01 01.35532 08 41 45.97 +26 19 49.5 20.2 V 691 – Steward Observatory, Kitt Peak-Spacewatch MPS 232559
2008 01 01.37298 08 41 45.20 +26 19 52.7 19.7 V 691 – Steward Observatory, Kitt Peak-Spacewatch MPS 232559
2008 01 01.39411 08 41 44.32 +26 19 54.9 19.9 V 691 – Steward Observatory, Kitt Peak-Spacewatch MPS 232559
2008 01 01.39859 08 41 44.10 +26 19 55.8 20.3 R H07 – 7300 Observatory, Cloudcroft MPS 232559
2008 01 01.40600 08 41 43.78 +26 19 56.2 20.0 R H07 – 7300 Observatory, Cloudcroft MPS 232559
2008 01 10.32541 08 34 46.06 +26 39 59.0   704 – Lincoln Laboratory ETS, New Mexico MPS 406847
2008 01 10.33815 08 34 45.39 +26 39 59.5   704 – Lincoln Laboratory ETS, New Mexico MPS 406847
2008 01 10.35089 08 34 44.68 +26 40 00.3   704 – Lincoln Laboratory ETS, New Mexico MPS 406847
2008 01 19.23174 08 26 51.64 +26 56 47.2 18.8 V G96 – Mt. Lemmon Survey MPS 235030
2008 01 19.23626 08 26 51.32 +26 56 48.3 18.5 V G96 – Mt. Lemmon Survey MPS 235030
2008 01 19.24089 08 26 51.18 +26 56 48.2 18.5 V G96 – Mt. Lemmon Survey MPS 235030
2008 01 19.24549 08 26 50.92 +26 56 48.4 19.1 V G96 – Mt. Lemmon Survey MPS 235030
2008 02 09.26381 08 08 05.78 +27 11 53.3 20.0 V G96 – Mt. Lemmon Survey MPS 239114
2008 02 09.27043 08 08 05.46 +27 11 53.0 20.0 V G96 – Mt. Lemmon Survey MPS 239114
2008 02 09.27716 08 08 05.13 +27 11 53.1 19.9 V G96 – Mt. Lemmon Survey MPS 239114
2008 02 09.28384 08 08 04.81 +27 11 53.1 20.0 V G96 – Mt. Lemmon Survey MPS 239114
2008 02 13.15952 08 05 06.64 +27 10 06.4 19.5   704 – Lincoln Laboratory ETS, New Mexico MPS 239114
2008 02 13.17134 08 05 06.11 +27 10 05.1 20.3   704 – Lincoln Laboratory ETS, New Mexico MPS 239114
2008 02 13.18317 08 05 05.43 +27 10 05.8 20.2   704 – Lincoln Laboratory ETS, New Mexico MPS 239114
